<?xml version="1.0" encoding="UTF-8" standalone="no" ?>
<gpx xmlns="http://www.topografix.com/GPX/1/1" xmlns:xsi="http://www.w3.org/2001/XMLSchema-instance" xsi:schemaLocation="http://www.topografix.com/GPX/1/1 http://www.topografix.com/GPX/1/1/gpx.xsd" version="1.1" creator="VisuGPX - https://www.visugpx.com">
  <metadata>
    <name>LUNEVILLE A HABLAINVILLE ALLE</name>
  </metadata>
  <trk>
    <name><![CDATA[vttae]]></name>
    <trkseg>
      <trkpt lat="48.58599" lon="6.50809">
        <ele>231</ele>
        <time>2021-05-02T23:40:32Z</time>
      </trkpt>
      <trkpt lat="48.58695" lon="6.50934">
        <ele>233</ele>
        <time>2021-05-02T23:40:32Z</time>
      </trkpt>
      <trkpt lat="48.58621" lon="6.51076">
        <ele>234</ele>
        <time>2021-05-02T23:40:32Z</time>
      </trkpt>
      <trkpt lat="48.58687" lon="6.51307">
        <ele>233</ele>
        <time>2021-05-02T23:40:32Z</time>
      </trkpt>
      <trkpt lat="48.5876" lon="6.51395">
        <ele>234.7</ele>
        <time>2021-05-02T23:40:32Z</time>
      </trkpt>
      <trkpt lat="48.58798" lon="6.51708">
        <ele>235.7</ele>
        <time>2021-05-02T23:40:32Z</time>
      </trkpt>
      <trkpt lat="48.58735" lon="6.52136">
        <ele>235.3</ele>
        <time>2021-05-02T23:40:32Z</time>
      </trkpt>
      <trkpt lat="48.58794" lon="6.52205">
        <ele>235</ele>
        <time>2021-05-02T23:40:32Z</time>
      </trkpt>
      <trkpt lat="48.58717" lon="6.5243">
        <ele>236</ele>
        <time>2021-05-02T23:40:32Z</time>
      </trkpt>
      <trkpt lat="48.58232" lon="6.53796">
        <ele>240.8</ele>
        <time>2021-05-02T23:40:32Z</time>
      </trkpt>
      <trkpt lat="48.58141" lon="6.54023">
        <ele>240.8</ele>
        <time>2021-05-02T23:40:32Z</time>
      </trkpt>
      <trkpt lat="48.58065" lon="6.54081">
        <ele>241</ele>
        <time>2021-05-02T23:40:32Z</time>
      </trkpt>
      <trkpt lat="48.58035" lon="6.54232">
        <ele>241</ele>
        <time>2021-05-02T23:40:32Z</time>
      </trkpt>
      <trkpt lat="48.58107" lon="6.54472">
        <ele>242</ele>
        <time>2021-05-02T23:40:32Z</time>
      </trkpt>
      <trkpt lat="48.57896" lon="6.54812">
        <ele>242</ele>
        <time>2021-05-02T23:40:32Z</time>
      </trkpt>
      <trkpt lat="48.5785" lon="6.54876">
        <ele>242</ele>
        <time>2021-05-02T23:40:32Z</time>
      </trkpt>
      <trkpt lat="48.57694" lon="6.54943">
        <ele>244</ele>
        <time>2021-05-02T23:40:32Z</time>
      </trkpt>
      <trkpt lat="48.57517" lon="6.5507">
        <ele>245.4</ele>
        <time>2021-05-02T23:40:32Z</time>
      </trkpt>
      <trkpt lat="48.57306" lon="6.55067">
        <ele>246</ele>
        <time>2021-05-02T23:40:32Z</time>
      </trkpt>
      <trkpt lat="48.57232" lon="6.55449">
        <ele>246</ele>
        <time>2021-05-02T23:40:32Z</time>
      </trkpt>
      <trkpt lat="48.57304" lon="6.55376">
        <ele>246</ele>
        <time>2021-05-02T23:40:32Z</time>
      </trkpt>
      <trkpt lat="48.57511" lon="6.55553">
        <ele>246</ele>
        <time>2021-05-02T23:40:32Z</time>
      </trkpt>
      <trkpt lat="48.57708" lon="6.55807">
        <ele>248</ele>
        <time>2021-05-02T23:40:32Z</time>
      </trkpt>
      <trkpt lat="48.57057" lon="6.59049">
        <ele>259.8</ele>
        <time>2021-05-02T23:40:32Z</time>
      </trkpt>
      <trkpt lat="48.56535" lon="6.61625">
        <ele>271.7</ele>
        <time>2021-05-02T23:40:32Z</time>
      </trkpt>
      <trkpt lat="48.56826" lon="6.61898">
        <ele>260.4</ele>
        <time>2021-05-02T23:40:32Z</time>
      </trkpt>
      <trkpt lat="48.57313" lon="6.62342">
        <ele>247.8</ele>
        <time>2021-05-02T23:40:32Z</time>
      </trkpt>
      <trkpt lat="48.57407" lon="6.62715">
        <ele>240.1</ele>
        <time>2021-05-02T23:40:32Z</time>
      </trkpt>
      <trkpt lat="48.5734" lon="6.63802">
        <ele>242</ele>
        <time>2021-05-02T23:40:32Z</time>
      </trkpt>
      <trkpt lat="48.57174" lon="6.64399">
        <ele>244.1</ele>
        <time>2021-05-02T23:40:32Z</time>
      </trkpt>
      <trkpt lat="48.57012" lon="6.64756">
        <ele>244.7</ele>
        <time>2021-05-02T23:40:32Z</time>
      </trkpt>
      <trkpt lat="48.56901" lon="6.64792">
        <ele>248.7</ele>
        <time>2021-05-02T23:40:32Z</time>
      </trkpt>
      <trkpt lat="48.5681" lon="6.65134">
        <ele>247.8</ele>
        <time>2021-05-02T23:40:32Z</time>
      </trkpt>
      <trkpt lat="48.56614" lon="6.65522">
        <ele>253.1</ele>
        <time>2021-05-02T23:40:32Z</time>
      </trkpt>
      <trkpt lat="48.56455" lon="6.6594">
        <ele>251.7</ele>
        <time>2021-05-02T23:40:32Z</time>
      </trkpt>
      <trkpt lat="48.56364" lon="6.66374">
        <ele>252.4</ele>
        <time>2021-05-02T23:40:32Z</time>
      </trkpt>
      <trkpt lat="48.56289" lon="6.67109">
        <ele>254</ele>
        <time>2021-05-02T23:40:32Z</time>
      </trkpt>
      <trkpt lat="48.56327" lon="6.6765">
        <ele>246.3</ele>
        <time>2021-05-02T23:40:32Z</time>
      </trkpt>
      <trkpt lat="48.56027" lon="6.66608">
        <ele>259</ele>
        <time>2021-05-02T23:40:32Z</time>
      </trkpt>
      <trkpt lat="48.55289" lon="6.66368">
        <ele>292.7</ele>
        <time>2021-05-02T23:40:32Z</time>
      </trkpt>
      <trkpt lat="48.54499" lon="6.66256">
        <ele>310.2</ele>
        <time>2021-05-02T23:40:32Z</time>
      </trkpt>
      <trkpt lat="48.53823" lon="6.65578">
        <ele>284.9</ele>
        <time>2021-05-02T23:40:32Z</time>
      </trkpt>
      <trkpt lat="48.52805" lon="6.68463">
        <ele>308</ele>
        <time>2021-05-02T23:40:32Z</time>
      </trkpt>
      <trkpt lat="48.52225" lon="6.69192">
        <ele>312</ele>
        <time>2021-05-02T23:40:32Z</time>
      </trkpt>
      <trkpt lat="48.51765" lon="6.70694">
        <ele>318.5</ele>
        <time>2021-05-02T23:40:32Z</time>
      </trkpt>
      <trkpt lat="48.51805" lon="6.72952">
        <ele>314.8</ele>
        <time>2021-05-02T23:40:32Z</time>
      </trkpt>
    </trkseg>
  </trk>
</gpx>